Data supplied by UK-AIR on 5/4/2008
All Data GMT hour ending 
Status: R =Ratified P=Provisional,P*=As supplied
,,Mace Head,,,,,,,,,,,,,,,,,,,,,,,
Date,time,"Ozone",status,unit
 
01-01-2001,01:00,90,R,ugm-3
01-01-2001,02:00,88,R,ugm-3
01-01-2001,03:00,84,R,ugm-3
01-01-2001,04:00,82,R,ugm-3
01-01-2001,05:00,80,R,ugm-3
01-01-2001,06:00,72,R,ugm-3
01-01-2001,07:00,78,R,ugm-3
01-01-2001,08:00,74,R,ugm-3
01-01-2001,09:00,68,R,ugm-3
01-01-2001,10:00,68,R,ugm-3
01-01-2001,11:00,64,R,ugm-3
01-01-2001,12:00,66,R,ugm-3
01-01-2001,13:00,68,R,ugm-3
01-01-2001,14:00,66,R,ugm-3
01-01-2001,15:00,66,R,ugm-3
01-01-2001,16:00,70,R,ugm-3
01-01-2001,17:00,86,R,ugm-3
01-01-2001,18:00,78,R,ugm-3
01-01-2001,19:00,88,R,ugm-3
01-01-2001,20:00,82,R,ugm-3
01-01-2001,21:00,74,R,ugm-3
01-01-2001,22:00,74,R,ugm-3
01-01-2001,23:00,76,R,ugm-3
01-01-2001,24:00,82,R,ugm-3
02-01-2001,01:00,76,R,ugm-3
02-01-2001,02:00,64,R,ugm-3
02-01-2001,03:00,68,R,ugm-3
02-01-2001,04:00,68,R,ugm-3
02-01-2001,05:00,64,R,ugm-3
02-01-2001,06:00,76,R,ugm-3
02-01-2001,07:00,80,R,ugm-3
02-01-2001,08:00,76,R,ugm-3
02-01-2001,09:00,76,R,ugm-3
02-01-2001,10:00,80,R,ugm-3
02-01-2001,11:00,80,R,ugm-3
02-01-2001,12:00,78,R,ugm-3
02-01-2001,13:00,80,R,ugm-3
02-01-2001,14:00,78,R,ugm-3
02-01-2001,15:00,76,R,ugm-3
02-01-2001,16:00,74,R,ugm-3
02-01-2001,17:00,74,R,ugm-3
02-01-2001,18:00,74,R,ugm-3
02-01-2001,19:00,70,R,ugm-3
02-01-2001,20:00,74,R,ugm-3
02-01-2001,21:00,72,R,ugm-3
02-01-2001,22:00,70,R,ugm-3
02-01-2001,23:00,72,R,ugm-3
02-01-2001,24:00,74,R,ugm-3
03-01-2001,01:00,80,R,ugm-3
03-01-2001,02:00,78,R,ugm-3
03-01-2001,03:00,76,R,ugm-3
03-01-2001,04:00,76,R,ugm-3
03-01-2001,05:00,78,R,ugm-3
03-01-2001,06:00,78,R,ugm-3
03-01-2001,07:00,78,R,ugm-3
03-01-2001,08:00,78,R,ugm-3
03-01-2001,09:00,76,R,ugm-3
03-01-2001,10:00,76,R,ugm-3
03-01-2001,11:00,76,R,ugm-3
03-01-2001,12:00,76,R,ugm-3
03-01-2001,13:00,76,R,ugm-3
03-01-2001,14:00,76,R,ugm-3
03-01-2001,15:00,76,R,ugm-3
03-01-2001,16:00,74,R,ugm-3
03-01-2001,17:00,68,R,ugm-3
03-01-2001,18:00,50,R,ugm-3
03-01-2001,19:00,50,R,ugm-3
03-01-2001,20:00,56,R,ugm-3
03-01-2001,21:00,62,R,ugm-3
03-01-2001,22:00,54,R,ugm-3
03-01-2001,23:00,56,R,ugm-3
03-01-2001,24:00,68,R,ugm-3
04-01-2001,01:00,74,R,ugm-3
04-01-2001,02:00,74,R,ugm-3
04-01-2001,03:00,76,R,ugm-3
04-01-2001,04:00,76,R,ugm-3
04-01-2001,05:00,78,R,ugm-3
04-01-2001,06:00,78,R,ugm-3
04-01-2001,07:00,76,R,ugm-3
04-01-2001,08:00,78,R,ugm-3
04-01-2001,09:00,78,R,ugm-3
04-01-2001,10:00,76,R,ugm-3
04-01-2001,11:00,76,R,ugm-3
04-01-2001,12:00,76,R,ugm-3
04-01-2001,13:00,76,R,ugm-3
04-01-2001,14:00,76,R,ugm-3
04-01-2001,15:00,78,R,ugm-3
04-01-2001,16:00,76,R,ugm-3
04-01-2001,17:00,76,R,ugm-3
04-01-2001,18:00,76,R,ugm-3
04-01-2001,19:00,78,R,ugm-3
04-01-2001,20:00,78,R,ugm-3
04-01-2001,21:00,78,R,ugm-3
04-01-2001,22:00,60,R,ugm-3
04-01-2001,23:00,50,R,ugm-3
04-01-2001,24:00,54,R,ugm-3
05-01-2001,01:00,52,R,ugm-3
05-01-2001,02:00,48,R,ugm-3
05-01-2001,03:00,48,R,ugm-3
05-01-2001,04:00,56,R,ugm-3
05-01-2001,05:00,46,R,ugm-3
05-01-2001,06:00,52,R,ugm-3
05-01-2001,07:00,50,R,ugm-3
05-01-2001,08:00,48,R,ugm-3
05-01-2001,09:00,44,R,ugm-3
05-01-2001,10:00,40,R,ugm-3
05-01-2001,11:00,48,R,ugm-3
05-01-2001,12:00,44,R,ugm-3
05-01-2001,13:00,42,R,ugm-3
05-01-2001,14:00,42,R,ugm-3
05-01-2001,15:00,40,R,ugm-3
05-01-2001,16:00,36,R,ugm-3
05-01-2001,17:00,30,R,ugm-3
05-01-2001,18:00,62,R,ugm-3
05-01-2001,19:00,76,R,ugm-3
05-01-2001,20:00,74,R,ugm-3
05-01-2001,21:00,70,R,ugm-3
05-01-2001,22:00,64,R,ugm-3
05-01-2001,23:00,64,R,ugm-3
05-01-2001,24:00,64,R,ugm-3
06-01-2001,01:00,66,R,ugm-3
06-01-2001,02:00,64,R,ugm-3
06-01-2001,03:00,66,R,ugm-3
06-01-2001,04:00,70,R,ugm-3
06-01-2001,05:00,72,R,ugm-3
06-01-2001,06:00,72,R,ugm-3
06-01-2001,07:00,70,R,ugm-3
06-01-2001,08:00,74,R,ugm-3
06-01-2001,09:00,72,R,ugm-3
06-01-2001,10:00,74,R,ugm-3
06-01-2001,11:00,72,R,ugm-3
06-01-2001,12:00,68,R,ugm-3
06-01-2001,13:00,70,R,ugm-3
06-01-2001,14:00,70,R,ugm-3
06-01-2001,15:00,70,R,ugm-3
06-01-2001,16:00,70,R,ugm-3
06-01-2001,17:00,72,R,ugm-3
06-01-2001,18:00,76,R,ugm-3
06-01-2001,19:00,78,R,ugm-3
06-01-2001,20:00,80,R,ugm-3
06-01-2001,21:00,80,R,ugm-3
06-01-2001,22:00,78,R,ugm-3
06-01-2001,23:00,78,R,ugm-3
06-01-2001,24:00,80,R,ugm-3
07-01-2001,01:00,78,R,ugm-3
07-01-2001,02:00,82,R,ugm-3
07-01-2001,03:00,80,R,ugm-3
07-01-2001,04:00,80,R,ugm-3
07-01-2001,05:00,80,R,ugm-3
07-01-2001,06:00,84,R,ugm-3
07-01-2001,07:00,84,R,ugm-3
07-01-2001,08:00,82,R,ugm-3
07-01-2001,09:00,82,R,ugm-3
07-01-2001,10:00,80,R,ugm-3
07-01-2001,11:00,82,R,ugm-3
07-01-2001,12:00,84,R,ugm-3
07-01-2001,13:00,82,R,ugm-3
07-01-2001,14:00,82,R,ugm-3
07-01-2001,15:00,82,R,ugm-3
07-01-2001,16:00,84,R,ugm-3
07-01-2001,17:00,82,R,ugm-3
07-01-2001,18:00,82,R,ugm-3
07-01-2001,19:00,82,R,ugm-3
07-01-2001,20:00,80,R,ugm-3
07-01-2001,21:00,80,R,ugm-3
07-01-2001,22:00,80,R,ugm-3
07-01-2001,23:00,76,R,ugm-3
07-01-2001,24:00,80,R,ugm-3
08-01-2001,01:00,82,R,ugm-3
08-01-2001,02:00,80,R,ugm-3
08-01-2001,03:00,80,R,ugm-3
08-01-2001,04:00,82,R,ugm-3
08-01-2001,05:00,84,R,ugm-3
08-01-2001,06:00,84,R,ugm-3
08-01-2001,07:00,84,R,ugm-3
08-01-2001,08:00,84,R,ugm-3
08-01-2001,09:00,82,R,ugm-3
08-01-2001,10:00,82,R,ugm-3
08-01-2001,11:00,78,R,ugm-3
08-01-2001,12:00,66,R,ugm-3
08-01-2001,13:00,62,R,ugm-3
08-01-2001,14:00,82,R,ugm-3
08-01-2001,15:00,82,R,ugm-3
08-01-2001,16:00,82,R,ugm-3
08-01-2001,17:00,82,R,ugm-3
08-01-2001,18:00,82,R,ugm-3
08-01-2001,19:00,80,R,ugm-3
08-01-2001,20:00,82,R,ugm-3
08-01-2001,21:00,70,R,ugm-3
08-01-2001,22:00,66,R,ugm-3
08-01-2001,23:00,66,R,ugm-3
08-01-2001,24:00,64,R,ugm-3
09-01-2001,01:00,64,R,ugm-3
09-01-2001,02:00,62,R,ugm-3
09-01-2001,03:00,62,R,ugm-3
09-01-2001,04:00,54,R,ugm-3
09-01-2001,05:00,40,R,ugm-3
09-01-2001,06:00,42,R,ugm-3
09-01-2001,07:00,44,R,ugm-3
09-01-2001,08:00,50,R,ugm-3
09-01-2001,09:00,48,R,ugm-3
09-01-2001,10:00,52,R,ugm-3
09-01-2001,11:00,56,R,ugm-3
09-01-2001,12:00,56,R,ugm-3
09-01-2001,13:00,60,R,ugm-3
09-01-2001,14:00,56,R,ugm-3
09-01-2001,15:00,56,R,ugm-3
09-01-2001,16:00,54,R,ugm-3
09-01-2001,17:00,52,R,ugm-3
09-01-2001,18:00,50,R,ugm-3
09-01-2001,19:00,48,R,ugm-3
09-01-2001,20:00,48,R,ugm-3
09-01-2001,21:00,46,R,ugm-3
09-01-2001,22:00,36,R,ugm-3
09-01-2001,23:00,36,R,ugm-3
09-01-2001,24:00,40,R,ugm-3
10-01-2001,01:00,40,R,ugm-3
10-01-2001,02:00,46,R,ugm-3
10-01-2001,03:00,50,R,ugm-3
10-01-2001,04:00,52,R,ugm-3
10-01-2001,05:00,50,R,ugm-3
10-01-2001,06:00,56,R,ugm-3
10-01-2001,07:00,54,R,ugm-3
10-01-2001,08:00,50,R,ugm-3
10-01-2001,09:00,46,R,ugm-3
10-01-2001,10:00,46,R,ugm-3
10-01-2001,11:00,42,R,ugm-3
10-01-2001,12:00,44,R,ugm-3
10-01-2001,13:00,52,R,ugm-3
10-01-2001,14:00,52,R,ugm-3
10-01-2001,15:00,50,R,ugm-3
10-01-2001,16:00,46,R,ugm-3
10-01-2001,17:00,46,R,ugm-3
10-01-2001,18:00,46,R,ugm-3
10-01-2001,19:00,48,R,ugm-3
10-01-2001,20:00,48,R,ugm-3
10-01-2001,21:00,46,R,ugm-3
10-01-2001,22:00,46,R,ugm-3
10-01-2001,23:00,44,R,ugm-3
10-01-2001,24:00,44,R,ugm-3
11-01-2001,01:00,46,R,ugm-3
11-01-2001,02:00,46,R,ugm-3
11-01-2001,03:00,48,R,ugm-3
11-01-2001,04:00,48,R,ugm-3
11-01-2001,05:00,48,R,ugm-3
11-01-2001,06:00,46,R,ugm-3
11-01-2001,07:00,48,R,ugm-3
11-01-2001,08:00,48,R,ugm-3
11-01-2001,09:00,50,R,ugm-3
11-01-2001,10:00,50,R,ugm-3
11-01-2001,11:00,48,R,ugm-3
11-01-2001,12:00,50,R,ugm-3
11-01-2001,13:00,48,R,ugm-3
11-01-2001,14:00,48,R,ugm-3
11-01-2001,15:00,48,R,ugm-3
11-01-2001,16:00,50,R,ugm-3
11-01-2001,17:00,50,R,ugm-3
11-01-2001,18:00,52,R,ugm-3
11-01-2001,19:00,54,R,ugm-3
11-01-2001,20:00,54,R,ugm-3
11-01-2001,21:00,56,R,ugm-3
11-01-2001,22:00,54,R,ugm-3
11-01-2001,23:00,54,R,ugm-3
11-01-2001,24:00,56,R,ugm-3
12-01-2001,01:00,58,R,ugm-3
12-01-2001,02:00,58,R,ugm-3
12-01-2001,03:00,60,R,ugm-3
12-01-2001,04:00,58,R,ugm-3
12-01-2001,05:00,56,R,ugm-3
12-01-2001,06:00,52,R,ugm-3
12-01-2001,07:00,50,R,ugm-3
12-01-2001,08:00,54,R,ugm-3
12-01-2001,09:00,54,R,ugm-3
12-01-2001,10:00,52,R,ugm-3
12-01-2001,11:00,50,R,ugm-3
12-01-2001,12:00,48,R,ugm-3
12-01-2001,13:00,50,R,ugm-3
12-01-2001,14:00,50,R,ugm-3
12-01-2001,15:00,54,R,ugm-3
12-01-2001,16:00,52,R,ugm-3
12-01-2001,17:00,48,R,ugm-3
12-01-2001,18:00,46,R,ugm-3
12-01-2001,19:00,42,R,ugm-3
12-01-2001,20:00,42,R,ugm-3
12-01-2001,21:00,42,R,ugm-3
12-01-2001,22:00,42,R,ugm-3
12-01-2001,23:00,40,R,ugm-3
12-01-2001,24:00,40,R,ugm-3
13-01-2001,01:00,42,R,ugm-3
13-01-2001,02:00,38,R,ugm-3
13-01-2001,03:00,40,R,ugm-3
13-01-2001,04:00,48,R,ugm-3
13-01-2001,05:00,46,R,ugm-3
13-01-2001,06:00,44,R,ugm-3
13-01-2001,07:00,42,R,ugm-3
13-01-2001,08:00,40,R,ugm-3
13-01-2001,09:00,40,R,ugm-3
13-01-2001,10:00,40,R,ugm-3
13-01-2001,11:00,38,R,ugm-3
13-01-2001,12:00,40,R,ugm-3
13-01-2001,13:00,38,R,ugm-3
13-01-2001,14:00,34,R,ugm-3
13-01-2001,15:00,34,R,ugm-3
13-01-2001,16:00,32,R,ugm-3
13-01-2001,17:00,32,R,ugm-3
13-01-2001,18:00,34,R,ugm-3
13-01-2001,19:00,36,R,ugm-3
13-01-2001,20:00,34,R,ugm-3
13-01-2001,21:00,28,R,ugm-3
13-01-2001,22:00,30,R,ugm-3
13-01-2001,23:00,28,R,ugm-3
13-01-2001,24:00,30,R,ugm-3
14-01-2001,01:00,34,R,ugm-3
14-01-2001,02:00,36,R,ugm-3
14-01-2001,03:00,36,R,ugm-3
14-01-2001,04:00,40,R,ugm-3
14-01-2001,05:00,38,R,ugm-3
14-01-2001,06:00,36,R,ugm-3
14-01-2001,07:00,34,R,ugm-3
14-01-2001,08:00,34,R,ugm-3
14-01-2001,09:00,32,R,ugm-3
14-01-2001,10:00,34,R,ugm-3
14-01-2001,11:00,38,R,ugm-3
14-01-2001,12:00,46,R,ugm-3
14-01-2001,13:00,50,R,ugm-3
14-01-2001,14:00,50,R,ugm-3
14-01-2001,15:00,52,R,ugm-3
14-01-2001,16:00,52,R,ugm-3
14-01-2001,17:00,50,R,ugm-3
14-01-2001,18:00,50,R,ugm-3
14-01-2001,19:00,50,R,ugm-3
14-01-2001,20:00,48,R,ugm-3
14-01-2001,21:00,48,R,ugm-3
14-01-2001,22:00,50,R,ugm-3
14-01-2001,23:00,52,R,ugm-3
14-01-2001,24:00,52,R,ugm-3
15-01-2001,01:00,52,R,ugm-3
15-01-2001,02:00,48,R,ugm-3
15-01-2001,03:00,48,R,ugm-3
15-01-2001,04:00,50,R,ugm-3
15-01-2001,05:00,46,R,ugm-3
15-01-2001,06:00,44,R,ugm-3
15-01-2001,07:00,42,R,ugm-3
15-01-2001,08:00,42,R,ugm-3
15-01-2001,09:00,40,R,ugm-3
15-01-2001,10:00,44,R,ugm-3
15-01-2001,11:00,46,R,ugm-3
15-01-2001,12:00,46,R,ugm-3
15-01-2001,13:00,44,R,ugm-3
15-01-2001,14:00,42,R,ugm-3
15-01-2001,15:00,46,R,ugm-3
15-01-2001,16:00,44,R,ugm-3
15-01-2001,17:00,46,R,ugm-3
15-01-2001,18:00,46,R,ugm-3
15-01-2001,19:00,42,R,ugm-3
15-01-2001,20:00,28,R,ugm-3
15-01-2001,21:00,30,R,ugm-3
15-01-2001,22:00,32,R,ugm-3
15-01-2001,23:00,30,R,ugm-3
15-01-2001,24:00,30,R,ugm-3
16-01-2001,01:00,32,R,ugm-3
16-01-2001,02:00,32,R,ugm-3
16-01-2001,03:00,36,R,ugm-3
16-01-2001,04:00,34,R,ugm-3
16-01-2001,05:00,34,R,ugm-3
16-01-2001,06:00,36,R,ugm-3
16-01-2001,07:00,36,R,ugm-3
16-01-2001,08:00,30,R,ugm-3
16-01-2001,09:00,32,R,ugm-3
16-01-2001,10:00,32,R,ugm-3
16-01-2001,11:00,32,R,ugm-3
16-01-2001,12:00,38,R,ugm-3
16-01-2001,13:00,42,R,ugm-3
16-01-2001,14:00,42,R,ugm-3
16-01-2001,15:00,46,R,ugm-3
16-01-2001,16:00,44,R,ugm-3
16-01-2001,17:00,38,R,ugm-3
16-01-2001,18:00,38,R,ugm-3
16-01-2001,19:00,36,R,ugm-3
16-01-2001,20:00,32,R,ugm-3
16-01-2001,21:00,26,R,ugm-3
16-01-2001,22:00,16,R,ugm-3
16-01-2001,23:00,14,R,ugm-3
16-01-2001,24:00,20,R,ugm-3
17-01-2001,01:00,22,R,ugm-3
17-01-2001,02:00,20,R,ugm-3
17-01-2001,03:00,14,R,ugm-3
17-01-2001,04:00,14,R,ugm-3
17-01-2001,05:00,18,R,ugm-3
17-01-2001,06:00,20,R,ugm-3
17-01-2001,07:00,20,R,ugm-3
17-01-2001,08:00,20,R,ugm-3
17-01-2001,09:00,16,R,ugm-3
17-01-2001,10:00,14,R,ugm-3
17-01-2001,11:00,14,R,ugm-3
17-01-2001,12:00,14,R,ugm-3
17-01-2001,13:00,16,R,ugm-3
17-01-2001,14:00,18,R,ugm-3
17-01-2001,15:00,16,R,ugm-3
17-01-2001,16:00,14,R,ugm-3
17-01-2001,17:00,12,R,ugm-3
17-01-2001,18:00,10,R,ugm-3
17-01-2001,19:00,8,R,ugm-3
17-01-2001,20:00,8,R,ugm-3
17-01-2001,21:00,10,R,ugm-3
17-01-2001,22:00,12,R,ugm-3
17-01-2001,23:00,14,R,ugm-3
17-01-2001,24:00,14,R,ugm-3
18-01-2001,01:00,14,R,ugm-3
18-01-2001,02:00,14,R,ugm-3
18-01-2001,03:00,16,R,ugm-3
18-01-2001,04:00,14,R,ugm-3
18-01-2001,05:00,16,R,ugm-3
18-01-2001,06:00,18,R,ugm-3
18-01-2001,07:00,16,R,ugm-3
18-01-2001,08:00,12,R,ugm-3
18-01-2001,09:00,10,R,ugm-3
18-01-2001,10:00,12,R,ugm-3
18-01-2001,11:00,16,R,ugm-3
18-01-2001,12:00,20,R,ugm-3
18-01-2001,13:00,22,R,ugm-3
18-01-2001,14:00,30,R,ugm-3
18-01-2001,15:00,,,
18-01-2001,16:00,28,R,ugm-3
18-01-2001,17:00,16,R,ugm-3
18-01-2001,18:00,14,R,ugm-3
18-01-2001,19:00,16,R,ugm-3
18-01-2001,20:00,12,R,ugm-3
18-01-2001,21:00,8,R,ugm-3
18-01-2001,22:00,4,R,ugm-3
18-01-2001,23:00,4,R,ugm-3
18-01-2001,24:00,2,R,ugm-3
19-01-2001,01:00,2,R,ugm-3
19-01-2001,02:00,4,R,ugm-3
19-01-2001,03:00,4,R,ugm-3
19-01-2001,04:00,4,R,ugm-3
19-01-2001,05:00,8,R,ugm-3
19-01-2001,06:00,10,R,ugm-3
19-01-2001,07:00,10,R,ugm-3
19-01-2001,08:00,8,R,ugm-3
19-01-2001,09:00,10,R,ugm-3
19-01-2001,10:00,14,R,ugm-3
19-01-2001,11:00,16,R,ugm-3
19-01-2001,12:00,18,R,ugm-3
19-01-2001,13:00,18,R,ugm-3
19-01-2001,14:00,22,R,ugm-3
19-01-2001,15:00,24,R,ugm-3
19-01-2001,16:00,24,R,ugm-3
19-01-2001,17:00,20,R,ugm-3
19-01-2001,18:00,14,R,ugm-3
19-01-2001,19:00,12,R,ugm-3
19-01-2001,20:00,14,R,ugm-3
19-01-2001,21:00,14,R,ugm-3
19-01-2001,22:00,10,R,ugm-3
19-01-2001,23:00,6,R,ugm-3
19-01-2001,24:00,6,R,ugm-3
20-01-2001,01:00,6,R,ugm-3
20-01-2001,02:00,10,R,ugm-3
20-01-2001,03:00,14,R,ugm-3
20-01-2001,04:00,14,R,ugm-3
20-01-2001,05:00,16,R,ugm-3
20-01-2001,06:00,22,R,ugm-3
20-01-2001,07:00,24,R,ugm-3
20-01-2001,08:00,24,R,ugm-3
20-01-2001,09:00,26,R,ugm-3
20-01-2001,10:00,32,R,ugm-3
20-01-2001,11:00,36,R,ugm-3
20-01-2001,12:00,36,R,ugm-3
20-01-2001,13:00,36,R,ugm-3
20-01-2001,14:00,38,R,ugm-3
20-01-2001,15:00,40,R,ugm-3
20-01-2001,16:00,46,R,ugm-3
20-01-2001,17:00,42,R,ugm-3
20-01-2001,18:00,44,R,ugm-3
20-01-2001,19:00,44,R,ugm-3
20-01-2001,20:00,46,R,ugm-3
20-01-2001,21:00,58,R,ugm-3
20-01-2001,22:00,70,R,ugm-3
20-01-2001,23:00,68,R,ugm-3
20-01-2001,24:00,70,R,ugm-3
21-01-2001,01:00,76,R,ugm-3
21-01-2001,02:00,78,R,ugm-3
21-01-2001,03:00,80,R,ugm-3
21-01-2001,04:00,80,R,ugm-3
21-01-2001,05:00,80,R,ugm-3
21-01-2001,06:00,80,R,ugm-3
21-01-2001,07:00,82,R,ugm-3
21-01-2001,08:00,80,R,ugm-3
21-01-2001,09:00,80,R,ugm-3
21-01-2001,10:00,74,R,ugm-3
21-01-2001,11:00,70,R,ugm-3
21-01-2001,12:00,70,R,ugm-3
21-01-2001,13:00,72,R,ugm-3
21-01-2001,14:00,70,R,ugm-3
21-01-2001,15:00,68,R,ugm-3
21-01-2001,16:00,66,R,ugm-3
21-01-2001,17:00,58,R,ugm-3
21-01-2001,18:00,50,R,ugm-3
21-01-2001,19:00,50,R,ugm-3
21-01-2001,20:00,52,R,ugm-3
21-01-2001,21:00,50,R,ugm-3
21-01-2001,22:00,60,R,ugm-3
21-01-2001,23:00,62,R,ugm-3
21-01-2001,24:00,64,R,ugm-3
22-01-2001,01:00,64,R,ugm-3
22-01-2001,02:00,66,R,ugm-3
22-01-2001,03:00,66,R,ugm-3
22-01-2001,04:00,64,R,ugm-3
22-01-2001,05:00,64,R,ugm-3
22-01-2001,06:00,66,R,ugm-3
22-01-2001,07:00,76,R,ugm-3
22-01-2001,08:00,82,R,ugm-3
22-01-2001,09:00,80,R,ugm-3
22-01-2001,10:00,72,R,ugm-3
22-01-2001,11:00,84,R,ugm-3
22-01-2001,12:00,84,R,ugm-3
22-01-2001,13:00,82,R,ugm-3
22-01-2001,14:00,84,R,ugm-3
22-01-2001,15:00,80,R,ugm-3
22-01-2001,16:00,78,R,ugm-3
22-01-2001,17:00,78,R,ugm-3
22-01-2001,18:00,76,R,ugm-3
22-01-2001,19:00,76,R,ugm-3
22-01-2001,20:00,80,R,ugm-3
22-01-2001,21:00,84,R,ugm-3
22-01-2001,22:00,90,R,ugm-3
22-01-2001,23:00,86,R,ugm-3
22-01-2001,24:00,80,R,ugm-3
23-01-2001,01:00,80,R,ugm-3
23-01-2001,02:00,80,R,ugm-3
23-01-2001,03:00,78,R,ugm-3
23-01-2001,04:00,76,R,ugm-3
23-01-2001,05:00,84,R,ugm-3
23-01-2001,06:00,84,R,ugm-3
23-01-2001,07:00,82,R,ugm-3
23-01-2001,08:00,68,R,ugm-3
23-01-2001,09:00,66,R,ugm-3
23-01-2001,10:00,70,R,ugm-3
23-01-2001,11:00,72,R,ugm-3
23-01-2001,12:00,70,R,ugm-3
23-01-2001,13:00,68,R,ugm-3
23-01-2001,14:00,76,R,ugm-3
23-01-2001,15:00,84,R,ugm-3
23-01-2001,16:00,78,R,ugm-3
23-01-2001,17:00,82,R,ugm-3
23-01-2001,18:00,84,R,ugm-3
23-01-2001,19:00,84,R,ugm-3
23-01-2001,20:00,80,R,ugm-3
23-01-2001,21:00,80,R,ugm-3
23-01-2001,22:00,82,R,ugm-3
23-01-2001,23:00,84,R,ugm-3
23-01-2001,24:00,86,R,ugm-3
24-01-2001,01:00,90,R,ugm-3
24-01-2001,02:00,86,R,ugm-3
24-01-2001,03:00,80,R,ugm-3
24-01-2001,04:00,80,R,ugm-3
24-01-2001,05:00,86,R,ugm-3
24-01-2001,06:00,88,R,ugm-3
24-01-2001,07:00,84,R,ugm-3
24-01-2001,08:00,82,R,ugm-3
24-01-2001,09:00,82,R,ugm-3
24-01-2001,10:00,82,R,ugm-3
24-01-2001,11:00,84,R,ugm-3
24-01-2001,12:00,96,R,ugm-3
24-01-2001,13:00,94,R,ugm-3
24-01-2001,14:00,94,R,ugm-3
24-01-2001,15:00,86,R,ugm-3
24-01-2001,16:00,80,R,ugm-3
24-01-2001,17:00,82,R,ugm-3
24-01-2001,18:00,84,R,ugm-3
24-01-2001,19:00,88,R,ugm-3
24-01-2001,20:00,84,R,ugm-3
24-01-2001,21:00,90,R,ugm-3
24-01-2001,22:00,94,R,ugm-3
24-01-2001,23:00,100,R,ugm-3
24-01-2001,24:00,88,R,ugm-3
25-01-2001,01:00,84,R,ugm-3
25-01-2001,02:00,86,R,ugm-3
25-01-2001,03:00,86,R,ugm-3
25-01-2001,04:00,86,R,ugm-3
25-01-2001,05:00,86,R,ugm-3
25-01-2001,06:00,88,R,ugm-3
25-01-2001,07:00,86,R,ugm-3
25-01-2001,08:00,82,R,ugm-3
25-01-2001,09:00,80,R,ugm-3
25-01-2001,10:00,78,R,ugm-3
25-01-2001,11:00,86,R,ugm-3
25-01-2001,12:00,84,R,ugm-3
25-01-2001,13:00,88,R,ugm-3
25-01-2001,14:00,90,R,ugm-3
25-01-2001,15:00,86,R,ugm-3
25-01-2001,16:00,84,R,ugm-3
25-01-2001,17:00,86,R,ugm-3
25-01-2001,18:00,86,R,ugm-3
25-01-2001,19:00,78,R,ugm-3
25-01-2001,20:00,76,R,ugm-3
25-01-2001,21:00,76,R,ugm-3
25-01-2001,22:00,82,R,ugm-3
25-01-2001,23:00,86,R,ugm-3
25-01-2001,24:00,90,R,ugm-3
26-01-2001,01:00,88,R,ugm-3
26-01-2001,02:00,88,R,ugm-3
26-01-2001,03:00,86,R,ugm-3
26-01-2001,04:00,88,R,ugm-3
26-01-2001,05:00,88,R,ugm-3
26-01-2001,06:00,86,R,ugm-3
26-01-2001,07:00,86,R,ugm-3
26-01-2001,08:00,86,R,ugm-3
26-01-2001,09:00,86,R,ugm-3
26-01-2001,10:00,86,R,ugm-3
26-01-2001,11:00,84,R,ugm-3
26-01-2001,12:00,86,R,ugm-3
26-01-2001,13:00,84,R,ugm-3
26-01-2001,14:00,86,R,ugm-3
26-01-2001,15:00,86,R,ugm-3
26-01-2001,16:00,86,R,ugm-3
26-01-2001,17:00,86,R,ugm-3
26-01-2001,18:00,86,R,ugm-3
26-01-2001,19:00,86,R,ugm-3
26-01-2001,20:00,86,R,ugm-3
26-01-2001,21:00,88,R,ugm-3
26-01-2001,22:00,88,R,ugm-3
26-01-2001,23:00,88,R,ugm-3
26-01-2001,24:00,86,R,ugm-3
27-01-2001,01:00,84,R,ugm-3
27-01-2001,02:00,86,R,ugm-3
27-01-2001,03:00,86,R,ugm-3
27-01-2001,04:00,86,R,ugm-3
27-01-2001,05:00,84,R,ugm-3
27-01-2001,06:00,86,R,ugm-3
27-01-2001,07:00,84,R,ugm-3
27-01-2001,08:00,84,R,ugm-3
27-01-2001,09:00,82,R,ugm-3
27-01-2001,10:00,82,R,ugm-3
27-01-2001,11:00,80,R,ugm-3
27-01-2001,12:00,80,R,ugm-3
27-01-2001,13:00,76,R,ugm-3
27-01-2001,14:00,76,R,ugm-3
27-01-2001,15:00,72,R,ugm-3
27-01-2001,16:00,70,R,ugm-3
27-01-2001,17:00,60,R,ugm-3
27-01-2001,18:00,56,R,ugm-3
27-01-2001,19:00,58,R,ugm-3
27-01-2001,20:00,54,R,ugm-3
27-01-2001,21:00,52,R,ugm-3
27-01-2001,22:00,50,R,ugm-3
27-01-2001,23:00,50,R,ugm-3
27-01-2001,24:00,50,R,ugm-3
28-01-2001,01:00,54,R,ugm-3
28-01-2001,02:00,52,R,ugm-3
28-01-2001,03:00,52,R,ugm-3
28-01-2001,04:00,48,R,ugm-3
28-01-2001,05:00,44,R,ugm-3
28-01-2001,06:00,48,R,ugm-3
28-01-2001,07:00,82,R,ugm-3
28-01-2001,08:00,76,R,ugm-3
28-01-2001,09:00,78,R,ugm-3
28-01-2001,10:00,80,R,ugm-3
28-01-2001,11:00,76,R,ugm-3
28-01-2001,12:00,76,R,ugm-3
28-01-2001,13:00,74,R,ugm-3
28-01-2001,14:00,74,R,ugm-3
28-01-2001,15:00,76,R,ugm-3
28-01-2001,16:00,78,R,ugm-3
28-01-2001,17:00,80,R,ugm-3
28-01-2001,18:00,76,R,ugm-3
28-01-2001,19:00,74,R,ugm-3
28-01-2001,20:00,72,R,ugm-3
28-01-2001,21:00,68,R,ugm-3
28-01-2001,22:00,70,R,ugm-3
28-01-2001,23:00,66,R,ugm-3
28-01-2001,24:00,72,R,ugm-3
29-01-2001,01:00,76,R,ugm-3
29-01-2001,02:00,76,R,ugm-3
29-01-2001,03:00,74,R,ugm-3
29-01-2001,04:00,72,R,ugm-3
29-01-2001,05:00,72,R,ugm-3
29-01-2001,06:00,68,R,ugm-3
29-01-2001,07:00,70,R,ugm-3
29-01-2001,08:00,72,R,ugm-3
29-01-2001,09:00,70,R,ugm-3
29-01-2001,10:00,70,R,ugm-3
29-01-2001,11:00,72,R,ugm-3
29-01-2001,12:00,70,R,ugm-3
29-01-2001,13:00,68,R,ugm-3
29-01-2001,14:00,68,R,ugm-3
29-01-2001,15:00,66,R,ugm-3
29-01-2001,16:00,66,R,ugm-3
29-01-2001,17:00,68,R,ugm-3
29-01-2001,18:00,68,R,ugm-3
29-01-2001,19:00,76,R,ugm-3
29-01-2001,20:00,80,R,ugm-3
29-01-2001,21:00,80,R,ugm-3
29-01-2001,22:00,76,R,ugm-3
29-01-2001,23:00,76,R,ugm-3
29-01-2001,24:00,80,R,ugm-3
30-01-2001,01:00,82,R,ugm-3
30-01-2001,02:00,82,R,ugm-3
30-01-2001,03:00,80,R,ugm-3
30-01-2001,04:00,80,R,ugm-3
30-01-2001,05:00,80,R,ugm-3
30-01-2001,06:00,78,R,ugm-3
30-01-2001,07:00,78,R,ugm-3
30-01-2001,08:00,76,R,ugm-3
30-01-2001,09:00,74,R,ugm-3
30-01-2001,10:00,74,R,ugm-3
30-01-2001,11:00,74,R,ugm-3
30-01-2001,12:00,74,R,ugm-3
30-01-2001,13:00,74,R,ugm-3
30-01-2001,14:00,74,R,ugm-3
30-01-2001,15:00,76,R,ugm-3
30-01-2001,16:00,76,R,ugm-3
30-01-2001,17:00,76,R,ugm-3
30-01-2001,18:00,76,R,ugm-3
30-01-2001,19:00,76,R,ugm-3
30-01-2001,20:00,76,R,ugm-3
30-01-2001,21:00,74,R,ugm-3
30-01-2001,22:00,74,R,ugm-3
30-01-2001,23:00,70,R,ugm-3
30-01-2001,24:00,72,R,ugm-3
31-01-2001,01:00,74,R,ugm-3
31-01-2001,02:00,72,R,ugm-3
31-01-2001,03:00,70,R,ugm-3
31-01-2001,04:00,74,R,ugm-3
31-01-2001,05:00,74,R,ugm-3
31-01-2001,06:00,68,R,ugm-3
31-01-2001,07:00,64,R,ugm-3
31-01-2001,08:00,62,R,ugm-3
31-01-2001,09:00,54,R,ugm-3
31-01-2001,10:00,54,R,ugm-3
31-01-2001,11:00,52,R,ugm-3
31-01-2001,12:00,54,R,ugm-3
31-01-2001,13:00,52,R,ugm-3
31-01-2001,14:00,46,R,ugm-3
31-01-2001,15:00,42,R,ugm-3
31-01-2001,16:00,40,R,ugm-3
31-01-2001,17:00,32,R,ugm-3
31-01-2001,18:00,28,R,ugm-3
31-01-2001,19:00,26,R,ugm-3
31-01-2001,20:00,22,R,ugm-3
31-01-2001,21:00,22,R,ugm-3
31-01-2001,22:00,24,R,ugm-3
31-01-2001,23:00,26,R,ugm-3
31-01-2001,24:00,26,R,ugm-3
01-02-2001,01:00,38,R,ugm-3
01-02-2001,02:00,44,R,ugm-3
01-02-2001,03:00,46,R,ugm-3
01-02-2001,04:00,50,R,ugm-3
01-02-2001,05:00,54,R,ugm-3
01-02-2001,06:00,56,R,ugm-3
01-02-2001,07:00,54,R,ugm-3
01-02-2001,08:00,56,R,ugm-3
01-02-2001,09:00,56,R,ugm-3
01-02-2001,10:00,58,R,ugm-3
01-02-2001,11:00,68,R,ugm-3
01-02-2001,12:00,72,R,ugm-3
01-02-2001,13:00,76,R,ugm-3
01-02-2001,14:00,78,R,ugm-3
01-02-2001,15:00,80,R,ugm-3
01-02-2001,16:00,80,R,ugm-3
01-02-2001,17:00,80,R,ugm-3
01-02-2001,18:00,80,R,ugm-3
01-02-2001,19:00,78,R,ugm-3
01-02-2001,20:00,80,R,ugm-3
01-02-2001,21:00,78,R,ugm-3
01-02-2001,22:00,80,R,ugm-3
01-02-2001,23:00,80,R,ugm-3
01-02-2001,24:00,82,R,ugm-3
02-02-2001,01:00,82,R,ugm-3
02-02-2001,02:00,84,R,ugm-3
02-02-2001,03:00,82,R,ugm-3
02-02-2001,04:00,84,R,ugm-3
02-02-2001,05:00,84,R,ugm-3
02-02-2001,06:00,84,R,ugm-3
02-02-2001,07:00,86,R,ugm-3
02-02-2001,08:00,88,R,ugm-3
02-02-2001,09:00,88,R,ugm-3
02-02-2001,10:00,88,R,ugm-3
02-02-2001,11:00,86,R,ugm-3
02-02-2001,12:00,84,R,ugm-3
02-02-2001,13:00,86,R,ugm-3
02-02-2001,14:00,86,R,ugm-3
02-02-2001,15:00,88,R,ugm-3
02-02-2001,16:00,88,R,ugm-3
02-02-2001,17:00,88,R,ugm-3
02-02-2001,18:00,88,R,ugm-3
02-02-2001,19:00,88,R,ugm-3
02-02-2001,20:00,88,R,ugm-3
02-02-2001,21:00,94,R,ugm-3
02-02-2001,22:00,88,R,ugm-3
02-02-2001,23:00,84,R,ugm-3
02-02-2001,24:00,84,R,ugm-3
03-02-2001,01:00,90,R,ugm-3
03-02-2001,02:00,88,R,ugm-3
03-02-2001,03:00,88,R,ugm-3
03-02-2001,04:00,84,R,ugm-3
03-02-2001,05:00,78,R,ugm-3
03-02-2001,06:00,70,R,ugm-3
03-02-2001,07:00,70,R,ugm-3
03-02-2001,08:00,66,R,ugm-3
03-02-2001,09:00,68,R,ugm-3
03-02-2001,10:00,62,R,ugm-3
03-02-2001,11:00,64,R,ugm-3
03-02-2001,12:00,68,R,ugm-3
03-02-2001,13:00,74,R,ugm-3
03-02-2001,14:00,78,R,ugm-3
03-02-2001,15:00,78,R,ugm-3
03-02-2001,16:00,72,R,ugm-3
03-02-2001,17:00,60,R,ugm-3
03-02-2001,18:00,54,R,ugm-3
03-02-2001,19:00,56,R,ugm-3
03-02-2001,20:00,56,R,ugm-3
03-02-2001,21:00,56,R,ugm-3
03-02-2001,22:00,54,R,ugm-3
03-02-2001,23:00,60,R,ugm-3
03-02-2001,24:00,60,R,ugm-3
04-02-2001,01:00,60,R,ugm-3
04-02-2001,02:00,68,R,ugm-3
04-02-2001,03:00,70,R,ugm-3
04-02-2001,04:00,70,R,ugm-3
04-02-2001,05:00,66,R,ugm-3
04-02-2001,06:00,64,R,ugm-3
04-02-2001,07:00,62,R,ugm-3
04-02-2001,08:00,60,R,ugm-3
04-02-2001,09:00,58,R,ugm-3
04-02-2001,10:00,60,R,ugm-3
04-02-2001,11:00,58,R,ugm-3
04-02-2001,12:00,60,R,ugm-3
04-02-2001,13:00,58,R,ugm-3
04-02-2001,14:00,60,R,ugm-3
04-02-2001,15:00,58,R,ugm-3
04-02-2001,16:00,58,R,ugm-3
04-02-2001,17:00,58,R,ugm-3
04-02-2001,18:00,54,R,ugm-3
04-02-2001,19:00,50,R,ugm-3
04-02-2001,20:00,42,R,ugm-3
04-02-2001,21:00,32,R,ugm-3
04-02-2001,22:00,18,R,ugm-3
04-02-2001,23:00,16,R,ugm-3
04-02-2001,24:00,20,R,ugm-3
05-02-2001,01:00,24,R,ugm-3
05-02-2001,02:00,26,R,ugm-3
05-02-2001,03:00,28,R,ugm-3
05-02-2001,04:00,26,R,ugm-3
05-02-2001,05:00,26,R,ugm-3
05-02-2001,06:00,24,R,ugm-3
05-02-2001,07:00,24,R,ugm-3
05-02-2001,08:00,22,R,ugm-3
05-02-2001,09:00,22,R,ugm-3
05-02-2001,10:00,24,R,ugm-3
05-02-2001,11:00,26,R,ugm-3